Weather History for KFYG - May, 2012

Change the Weather History Date:

Thursday, May 10, 2012

  Actual Average (KSTL) Record (KSTL)
Temperature  
Mean Temperature 60 °F 65 °F  
Max Temperature 73 °F 75 °F 91 °F (1963)
Min Temperature 46 °F 55 °F 31 °F (1966)
Degree Days  
Heating Degree Days 6 3  
Month to date heating degree days 37  
Since 1 July heating degree days 4493  
Cooling Degree Days 0 3  
Month to date cooling degree days 24  
Year to date cooling degree days 70  
Growing Degree Days 10 (Base 50)    
Moisture  
Dew Point 48 °F    
Average Humidity 71    
Maximum Humidity 100    
Minimum Humidity 36    
Precipitation  
Precipitation 0.00 in 0.14 in 2.22 in (1921)
Month to date precipitation 1.43  
Year to date precipitation 13.08  
Snow  
Snow - 0.00 in 0.00 in (2014)
Month to date snowfall 0.0  
Since 1 July snowfall 17.7  
Snow Depth -    
Sea Level Pressure  
Sea Level Pressure 29.99 in    
Wind  
Wind Speed 0 mph ()    
Max Wind Speed 7 mph    
Max Gust Speed -    
Visibility 9.7 miles    
Events      
T = Trace of Precipitation, MM = Missing Value Source: Averaged Metar Reports

Daily Weather History Graph

Daily Weather History Graph

Search for Another Location

Airport or City:

Trip Planner

Search our weather history database for the weather conditions in past years. The results will help you decide how hot, cold, wet, or windy it might be!

Date:

Astronomy

May. 10, 2012 Rise Set
Actual Time 5:56 AM CDT 8:04 PM CDT
Civil Twilight 5:26 AM CDT 8:34 PM CDT
Nautical Twilight 4:50 AM CDT 9:10 PM CDT
Astronomical Twilight 4:11 AM CDT 9:49 PM CDT
Moon 12:03 AM CDT (5/10) 10:21 AM CDT (5/10)
Length of Visible Light 15h 07m
Length of Day
14h 08m
Waning Gibbous, 73% of the Moon is Illuminated
May 10
Waning Gibbous
May 12
Last Quarter
May 20
New
May 28
First Quarter
Jun 4
Full

Hourly Weather History & Observations

Time (CDT) Temp. Dew Point Humidity Pressure Visibility Wind Dir Wind Speed Gust Speed Precip Events Conditions
12:15 AM 50.0 °F 50.0 °F 100% 29.98 in 10.0 mi Calm Calm - N/A   Clear
12:35 AM 50.0 °F 50.0 °F 100% 29.98 in 10.0 mi Calm Calm - N/A   Clear
12:55 AM 50.0 °F 50.0 °F 100% 29.98 in 10.0 mi Calm Calm - N/A   Clear
1:15 AM 50.0 °F 50.0 °F 100% 29.98 in 10.0 mi Calm Calm - N/A   Clear
1:35 AM 50.0 °F 50.0 °F 100% 29.98 in 10.0 mi Calm Calm - N/A   Partly Cloudy
1:55 AM 50.0 °F 50.0 °F 100% 29.98 in 10.0 mi Calm Calm - N/A   Partly Cloudy
2:15 AM 48.2 °F 48.2 °F 100% 29.98 in 10.0 mi Calm Calm - N/A   Clear
2:35 AM 48.2 °F 48.2 °F 100% 29.97 in 10.0 mi Calm Calm - N/A   Clear
2:55 AM 48.2 °F 48.2 °F 100% 29.97 in 10.0 mi Calm Calm - N/A   Clear
3:15 AM 48.2 °F 48.2 °F 100% 29.97 in 10.0 mi Calm Calm - N/A   Clear
3:35 AM 48.2 °F 48.2 °F 100% 29.97 in 10.0 mi Calm Calm - N/A   Clear
3:55 AM 48.2 °F 48.2 °F 100% 29.97 in 10.0 mi Calm Calm - N/A   Clear
4:15 AM 48.2 °F 48.2 °F 100% 29.97 in 10.0 mi Calm Calm - N/A   Clear
4:35 AM 48.2 °F 48.2 °F 100% 29.97 in 10.0 mi Calm Calm - N/A   Clear
4:55 AM 46.4 °F 46.4 °F 100% 29.98 in 10.0 mi Calm Calm - N/A   Clear
5:15 AM 46.4 °F 46.4 °F 100% 29.98 in 10.0 mi Calm Calm - N/A   Clear
5:35 AM 46.4 °F 46.4 °F 100% 29.99 in 10.0 mi Calm Calm - N/A   Partly Cloudy
5:55 AM 46.4 °F 46.4 °F 100% 29.99 in 10.0 mi Calm Calm - N/A   Clear
6:15 AM 46.4 °F 46.4 °F 100% 30.00 in 10.0 mi Calm Calm - N/A   Clear
6:35 AM 46.4 °F 46.4 °F 100% 30.01 in 10.0 mi Calm Calm - N/A   Clear
6:55 AM 48.2 °F 48.2 °F 100% 30.01 in 10.0 mi Calm Calm - N/A   Clear
7:15 AM 48.2 °F 48.2 °F 100% 30.02 in 10.0 mi Calm Calm - N/A   Mostly Cloudy
7:35 AM 50.0 °F 50.0 °F 100% 30.02 in 1.2 mi Calm Calm - N/A   Overcast
7:55 AM 51.8 °F 51.8 °F 100% 30.03 in 0.8 mi Calm Calm - N/A   Overcast
8:15 AM 53.6 °F 53.6 °F 100% 30.03 in 10.0 mi Calm Calm - N/A   Overcast
8:35 AM 55.4 °F 55.4 °F 100% 30.03 in 10.0 mi Calm Calm - N/A   Overcast
8:55 AM 57.2 °F 55.4 °F 94% 30.03 in 10.0 mi Calm Calm - N/A   Mostly Cloudy
9:15 AM 59.0 °F 55.4 °F 88% 30.03 in 10.0 mi Calm Calm - N/A   Partly Cloudy
9:35 AM 60.8 °F 53.6 °F 77% 30.03 in 10.0 mi Calm Calm - N/A   Scattered Clouds
9:55 AM 62.6 °F 53.6 °F 72% 30.03 in 10.0 mi Calm Calm - N/A   Partly Cloudy
10:15 AM 64.4 °F 51.8 °F 64% 30.03 in 10.0 mi Calm Calm - N/A   Clear
10:35 AM 64.4 °F 48.2 °F 56% 30.03 in 10.0 mi Calm Calm - N/A   Clear
10:55 AM 66.2 °F 46.4 °F 49% 30.02 in 10.0 mi Calm Calm - N/A   Clear
11:15 AM 68.0 °F 44.6 °F 43% 30.02 in 10.0 mi Calm Calm - N/A   Clear
11:35 AM 68.0 °F 44.6 °F 43% 30.02 in 10.0 mi WNW 3.5 mph - N/A   Partly Cloudy
11:55 AM 68.0 °F 41.0 °F 37% 30.01 in 10.0 mi WNW 3.5 mph - N/A   Mostly Cloudy
12:15 PM 68.0 °F 44.6 °F 43% 30.00 in 10.0 mi Calm Calm - N/A   Mostly Cloudy
12:35 PM 68.0 °F 46.4 °F 46% 30.00 in 10.0 mi Calm Calm - N/A   Scattered Clouds
12:55 PM 69.8 °F 46.4 °F 43% 30.00 in 10.0 mi Calm Calm - N/A   Mostly Cloudy
1:15 PM 68.0 °F 44.6 °F 43% 30.00 in 10.0 mi Calm Calm - N/A   Overcast
1:35 PM 69.8 °F 46.4 °F 43% 29.99 in 10.0 mi Calm Calm - N/A   Mostly Cloudy
1:55 PM 69.8 °F 44.6 °F 40% 29.99 in 10.0 mi Calm Calm - N/A   Partly Cloudy
2:15 PM 69.8 °F 44.6 °F 40% 29.99 in 10.0 mi Calm Calm - N/A   Mostly Cloudy
2:35 PM 71.6 °F 46.4 °F 41% 29.98 in 10.0 mi Calm Calm - N/A   Scattered Clouds
2:55 PM 71.6 °F 44.6 °F 38% 29.98 in 10.0 mi Calm Calm - N/A   Clear
3:15 PM 71.6 °F 44.6 °F 38% 29.97 in 10.0 mi Calm Calm - N/A   Clear
3:35 PM 71.6 °F 44.6 °F 38% 29.97 in 10.0 mi Calm Calm - N/A   Partly Cloudy
3:55 PM 73.4 °F 46.4 °F 38% 29.96 in 10.0 mi Calm Calm - N/A   Scattered Clouds
4:15 PM 71.6 °F 46.4 °F 41% 29.96 in 10.0 mi Calm Calm - N/A   Scattered Clouds
4:35 PM 71.6 °F 44.6 °F 38% 29.96 in 10.0 mi Calm Calm - N/A   Partly Cloudy
4:55 PM 73.4 °F 44.6 °F 36% 29.96 in 10.0 mi South 5.8 mph - N/A   Clear
5:15 PM 73.4 °F 46.4 °F 38% 29.95 in 10.0 mi SE 6.9 mph - N/A   Clear
5:35 PM 73.4 °F 44.6 °F 36% 29.96 in 10.0 mi Calm Calm - N/A   Clear
5:55 PM 73.4 °F 44.6 °F 36% 29.96 in 10.0 mi Calm Calm - N/A   Clear
6:15 PM 73.4 °F 44.6 °F 36% 29.96 in 10.0 mi SSE 3.5 mph - N/A   Clear
6:35 PM 71.6 °F 46.4 °F 41% 29.96 in 10.0 mi Calm Calm - N/A   Clear
6:55 PM 71.6 °F 46.4 °F 41% 29.96 in 10.0 mi Calm Calm - N/A   Clear
7:15 PM 71.6 °F 46.4 °F 41% 29.96 in 10.0 mi Calm Calm - N/A   Clear
7:35 PM 68.0 °F 48.2 °F 49% 29.96 in 10.0 mi Calm Calm - N/A   Clear
7:55 PM 66.2 °F 48.2 °F 52% 29.96 in 10.0 mi Calm Calm - N/A   Clear
8:15 PM 66.2 °F 48.2 °F 52% 29.96 in 10.0 mi Calm Calm - N/A   Clear
8:35 PM 62.6 °F 50.0 °F 63% 29.97 in 10.0 mi Calm Calm - N/A   Clear
8:55 PM 62.6 °F 50.0 °F 63% 29.98 in 10.0 mi Calm Calm - N/A   Clear
9:15 PM 59.0 °F 50.0 °F 72% 29.98 in 10.0 mi Calm Calm - N/A   Clear
9:35 PM 59.0 °F 50.0 °F 72% 29.99 in 10.0 mi Calm Calm - N/A   Clear
9:55 PM 59.0 °F 53.6 °F 82% 30.00 in 10.0 mi Calm Calm - N/A   Clear
10:15 PM 57.2 °F 53.6 °F 88% 30.01 in 10.0 mi Calm Calm - N/A   Clear
10:35 PM 57.2 °F 51.8 °F 82% 30.01 in 10.0 mi Calm Calm - N/A   Clear
10:55 PM 57.2 °F 51.8 °F 82% 30.01 in 10.0 mi Calm Calm - N/A   Clear
11:15 PM 57.2 °F 53.6 °F 88% 30.01 in 10.0 mi Calm Calm - N/A   Clear
11:35 PM 55.4 °F 53.6 °F 94% 30.02 in 10.0 mi Calm Calm - N/A   Clear